Year,Month,Day,Hour,Minute,Value (Times are PST for temperature in C)
2018,05,29,00,00,12.60
2018,05,29,00,01,12.60
2018,05,29,00,02,12.50
2018,05,29,00,03,12.50
2018,05,29,00,04,12.50
2018,05,29,00,05,12.40
2018,05,29,00,06,12.40
2018,05,29,00,07,12.40
2018,05,29,00,08,12.40
2018,05,29,00,09,12.40
2018,05,29,00,10,12.30
2018,05,29,00,11,12.30
2018,05,29,00,12,12.30
2018,05,29,00,13,12.30
2018,05,29,00,14,12.30
2018,05,29,00,15,12.30
2018,05,29,00,16,12.30
2018,05,29,00,17,12.30
2018,05,29,00,18,12.30
2018,05,29,00,19,12.30
2018,05,29,00,20,12.30
2018,05,29,00,21,12.20
2018,05,29,00,22,12.20
2018,05,29,00,23,12.20
2018,05,29,00,24,12.20
2018,05,29,00,25,12.20
2018,05,29,00,26,12.20
2018,05,29,00,27,12.20
2018,05,29,00,28,12.20
2018,05,29,00,29,12.10
2018,05,29,00,30,12.10
2018,05,29,00,31,12.10
2018,05,29,00,32,12.10
2018,05,29,00,33,12.10
2018,05,29,00,34,12.00
2018,05,29,00,35,12.00
2018,05,29,00,36,12.00
2018,05,29,00,37,12.00
2018,05,29,00,38,12.00
2018,05,29,00,39,12.00
2018,05,29,00,40,12.00
2018,05,29,00,41,12.10
2018,05,29,00,42,12.10
2018,05,29,00,43,12.10
2018,05,29,00,44,12.10
2018,05,29,00,45,12.10
2018,05,29,00,46,12.10
2018,05,29,00,47,12.10
2018,05,29,00,48,12.00
2018,05,29,00,49,12.00
2018,05,29,00,50,12.00
2018,05,29,00,51,12.00
2018,05,29,00,52,12.10
2018,05,29,00,53,12.10
2018,05,29,00,54,12.10
2018,05,29,00,55,12.10
2018,05,29,00,56,12.10
2018,05,29,00,57,12.10
2018,05,29,00,58,12.00
2018,05,29,00,59,12.00
2018,05,29,01,00,12.00
2018,05,29,01,01,12.00
2018,05,29,01,02,12.00
2018,05,29,01,03,12.00
2018,05,29,01,04,12.00
2018,05,29,01,05,12.00
2018,05,29,01,06,12.00
2018,05,29,01,07,12.00
2018,05,29,01,08,12.00
2018,05,29,01,09,11.90
2018,05,29,01,10,11.90
2018,05,29,01,11,11.90
2018,05,29,01,12,11.90
2018,05,29,01,13,12.00
2018,05,29,01,14,11.90
2018,05,29,01,15,11.90
2018,05,29,01,16,11.90
2018,05,29,01,17,11.90
2018,05,29,01,18,11.90
2018,05,29,01,19,11.90
2018,05,29,01,20,11.90
2018,05,29,01,21,12.00
2018,05,29,01,22,12.00
2018,05,29,01,23,12.00
2018,05,29,01,24,12.00
2018,05,29,01,25,12.00
2018,05,29,01,26,12.00
2018,05,29,01,27,12.00
2018,05,29,01,28,11.90
2018,05,29,01,29,11.90
2018,05,29,01,30,11.90
2018,05,29,01,31,11.90
2018,05,29,01,32,11.90
2018,05,29,01,33,11.90
2018,05,29,01,34,11.90
2018,05,29,01,35,11.90
2018,05,29,01,36,11.90
2018,05,29,01,37,11.90
2018,05,29,01,38,11.90
2018,05,29,01,39,11.90
2018,05,29,01,40,11.90
2018,05,29,01,41,11.90
2018,05,29,01,42,11.90
2018,05,29,01,43,11.80
2018,05,29,01,44,11.80
2018,05,29,01,45,11.80
2018,05,29,01,46,11.80
2018,05,29,01,47,11.80
2018,05,29,01,48,11.80
2018,05,29,01,49,11.80
2018,05,29,01,50,11.70
2018,05,29,01,51,11.70
2018,05,29,01,52,11.70
2018,05,29,01,53,11.60
2018,05,29,01,54,11.60
2018,05,29,01,55,11.60
2018,05,29,01,56,11.50
2018,05,29,01,57,11.50
2018,05,29,01,58,11.50
2018,05,29,01,59,11.40
2018,05,29,02,00,11.40
2018,05,29,02,01,11.40
2018,05,29,02,02,11.30
2018,05,29,02,03,11.30
2018,05,29,02,04,11.30
2018,05,29,02,05,11.20
2018,05,29,02,06,11.20
2018,05,29,02,07,11.20
2018,05,29,02,08,11.20
2018,05,29,02,09,11.20
2018,05,29,02,10,11.10
2018,05,29,02,11,11.10
2018,05,29,02,12,11.10
2018,05,29,02,13,11.10
2018,05,29,02,14,11.10
2018,05,29,02,15,11.10
2018,05,29,02,16,11.10
2018,05,29,02,17,11.10
2018,05,29,02,18,11.00
2018,05,29,02,19,11.00
2018,05,29,02,20,11.00
2018,05,29,02,21,11.00
2018,05,29,02,22,11.00
2018,05,29,02,23,11.00
2018,05,29,02,24,11.00
2018,05,29,02,25,10.90
2018,05,29,02,26,10.90
2018,05,29,02,27,10.90
2018,05,29,02,28,10.90
2018,05,29,02,29,10.90
2018,05,29,02,30,10.90
2018,05,29,02,31,10.90
2018,05,29,02,32,10.80
2018,05,29,02,33,10.80
2018,05,29,02,34,10.80
2018,05,29,02,35,10.80
2018,05,29,02,36,10.80
2018,05,29,02,37,10.80
2018,05,29,02,38,10.80
2018,05,29,02,39,10.80
2018,05,29,02,40,10.80
2018,05,29,02,41,10.80
2018,05,29,02,42,10.80
2018,05,29,02,43,10.80
2018,05,29,02,44,10.80
2018,05,29,02,45,10.80
2018,05,29,02,46,10.80
2018,05,29,02,47,10.80
2018,05,29,02,48,10.80
2018,05,29,02,49,10.80
2018,05,29,02,50,10.70
2018,05,29,02,51,10.70
2018,05,29,02,52,10.70
2018,05,29,02,53,10.70
2018,05,29,02,54,10.70
2018,05,29,02,55,10.70
2018,05,29,02,56,10.70
2018,05,29,02,57,10.70
2018,05,29,02,58,10.70
2018,05,29,02,59,10.60
2018,05,29,03,00,10.60
2018,05,29,03,01,10.60
2018,05,29,03,02,10.60
2018,05,29,03,03,10.60
2018,05,29,03,04,10.60
2018,05,29,03,05,10.60
2018,05,29,03,06,10.60
2018,05,29,03,07,10.60
2018,05,29,03,08,10.50
2018,05,29,03,09,10.50
2018,05,29,03,10,10.50
2018,05,29,03,11,10.50
2018,05,29,03,12,10.50
2018,05,29,03,13,10.50
2018,05,29,03,14,10.40
2018,05,29,03,15,10.50
2018,05,29,03,16,10.40
2018,05,29,03,17,10.40
2018,05,29,03,18,10.40
2018,05,29,03,19,10.40
2018,05,29,03,20,10.40
2018,05,29,03,21,10.40
2018,05,29,03,22,10.40
2018,05,29,03,23,10.40
2018,05,29,03,24,10.40
2018,05,29,03,25,10.40
2018,05,29,03,26,10.40
2018,05,29,03,27,10.40
2018,05,29,03,28,10.30
2018,05,29,03,29,10.30
2018,05,29,03,30,10.30
2018,05,29,03,31,10.30
2018,05,29,03,32,10.30
2018,05,29,03,33,10.30
2018,05,29,03,34,10.30
2018,05,29,03,35,10.30
2018,05,29,03,36,10.30
2018,05,29,03,37,10.30
2018,05,29,03,38,10.30
2018,05,29,03,39,10.30
2018,05,29,03,40,10.30
2018,05,29,03,41,10.20
2018,05,29,03,42,10.20
2018,05,29,03,43,10.20
2018,05,29,03,44,10.20
2018,05,29,03,45,10.20
2018,05,29,03,46,10.20
2018,05,29,03,47,10.20
2018,05,29,03,48,10.20
2018,05,29,03,49,10.20
2018,05,29,03,50,10.20
2018,05,29,03,51,10.20
2018,05,29,03,52,10.20
2018,05,29,03,53,10.20
2018,05,29,03,54,10.20
2018,05,29,03,55,10.20
2018,05,29,03,56,10.20
2018,05,29,03,57,10.20
2018,05,29,03,58,10.20
2018,05,29,03,59,10.20
2018,05,29,04,00,10.20
2018,05,29,04,01,10.20
2018,05,29,04,02,10.20
2018,05,29,04,03,10.20
2018,05,29,04,04,10.20
2018,05,29,04,05,10.20
2018,05,29,04,06,10.20
2018,05,29,04,07,10.20
2018,05,29,04,08,10.20
2018,05,29,04,09,10.20
2018,05,29,04,10,10.20
2018,05,29,04,11,10.20
2018,05,29,04,12,10.20
2018,05,29,04,13,10.20
2018,05,29,04,14,10.20
2018,05,29,04,15,10.20
2018,05,29,04,16,10.20
2018,05,29,04,17,10.20
2018,05,29,04,18,10.20
2018,05,29,04,19,10.20
2018,05,29,04,20,10.20
2018,05,29,04,21,10.20
2018,05,29,04,22,10.20
2018,05,29,04,23,10.20
2018,05,29,04,24,10.20
2018,05,29,04,25,10.20
2018,05,29,04,26,10.20
2018,05,29,04,27,10.20
2018,05,29,04,28,10.20
2018,05,29,04,29,10.20
2018,05,29,04,30,10.20
2018,05,29,04,31,10.20
2018,05,29,04,32,10.20
2018,05,29,04,33,10.20
2018,05,29,04,34,10.20
2018,05,29,04,35,10.10
2018,05,29,04,36,10.10
2018,05,29,04,37,10.10
2018,05,29,04,38,10.10
2018,05,29,04,39,10.10
2018,05,29,04,40,10.10
2018,05,29,04,41,10.00
2018,05,29,04,42,10.00
2018,05,29,04,43,10.00
2018,05,29,04,44,10.00
2018,05,29,04,45,10.00
2018,05,29,04,46,10.00
2018,05,29,04,47,10.00
2018,05,29,04,48,9.90
2018,05,29,04,49,9.90
2018,05,29,04,50,9.90
2018,05,29,04,51,9.90
2018,05,29,04,52,9.90
2018,05,29,04,53,9.90
2018,05,29,04,54,9.90
2018,05,29,04,55,9.90
2018,05,29,04,56,9.90
2018,05,29,04,57,9.90
2018,05,29,04,58,9.90
2018,05,29,04,59,9.80
2018,05,29,05,00,9.80
2018,05,29,05,01,9.80
2018,05,29,05,02,9.80
2018,05,29,05,03,9.80
2018,05,29,05,04,9.80
2018,05,29,05,05,9.80
2018,05,29,05,06,9.80
2018,05,29,05,07,9.70
2018,05,29,05,08,9.70
2018,05,29,05,09,9.70
2018,05,29,05,10,9.70
2018,05,29,05,11,9.70
2018,05,29,05,12,9.70
2018,05,29,05,13,9.70
2018,05,29,05,14,9.70
2018,05,29,05,15,9.70
2018,05,29,05,16,9.70
2018,05,29,05,17,9.70
2018,05,29,05,18,9.60
2018,05,29,05,19,9.60
2018,05,29,05,20,9.60
2018,05,29,05,21,9.60
2018,05,29,05,22,9.60
2018,05,29,05,23,9.60
2018,05,29,05,24,9.60
2018,05,29,05,25,9.60
2018,05,29,05,26,9.60
2018,05,29,05,27,9.50
2018,05,29,05,28,9.50
2018,05,29,05,29,9.50
2018,05,29,05,30,9.50
2018,05,29,05,31,9.50
2018,05,29,05,32,9.50
2018,05,29,05,33,9.50
2018,05,29,05,34,9.50
2018,05,29,05,35,9.50
2018,05,29,05,36,9.40
2018,05,29,05,37,9.40
2018,05,29,05,38,9.40
2018,05,29,05,39,9.40
2018,05,29,05,40,9.40
2018,05,29,05,41,9.40
2018,05,29,05,42,9.40
2018,05,29,05,43,9.40
2018,05,29,05,44,9.40
2018,05,29,05,45,9.40
2018,05,29,05,46,9.40
2018,05,29,05,47,9.40
2018,05,29,05,48,9.40
2018,05,29,05,49,9.40
2018,05,29,05,50,9.40
2018,05,29,05,51,9.40
2018,05,29,05,52,9.40
2018,05,29,05,53,9.40
2018,05,29,05,54,9.40
2018,05,29,05,55,9.40
2018,05,29,05,56,9.40
2018,05,29,05,57,9.40
2018,05,29,05,58,9.50
2018,05,29,05,59,9.50
2018,05,29,06,00,9.50
2018,05,29,06,01,9.60
2018,05,29,06,02,9.60
2018,05,29,06,03,9.60
2018,05,29,06,04,9.70
2018,05,29,06,05,9.70
2018,05,29,06,06,9.70
2018,05,29,06,07,9.80
2018,05,29,06,08,9.80
2018,05,29,06,09,9.80
2018,05,29,06,10,9.80
2018,05,29,06,11,9.90
2018,05,29,06,12,9.90
2018,05,29,06,13,9.90
2018,05,29,06,14,9.90
2018,05,29,06,15,9.90
2018,05,29,06,16,10.00
2018,05,29,06,17,10.00
2018,05,29,06,18,10.00
2018,05,29,06,19,10.10
2018,05,29,06,20,10.10
2018,05,29,06,21,10.10
2018,05,29,06,22,10.10
2018,05,29,06,23,10.10
2018,05,29,06,24,10.20
2018,05,29,06,25,10.20
2018,05,29,06,26,10.20
2018,05,29,06,27,10.20
2018,05,29,06,28,10.20
2018,05,29,06,29,10.30
2018,05,29,06,30,10.30
2018,05,29,06,31,10.30
2018,05,29,06,32,10.30
2018,05,29,06,33,10.30
2018,05,29,06,34,10.30
2018,05,29,06,35,10.40
2018,05,29,06,36,10.40
2018,05,29,06,37,10.40
2018,05,29,06,38,10.40
2018,05,29,06,39,10.50
2018,05,29,06,40,10.50
2018,05,29,06,41,10.60
2018,05,29,06,42,10.60
2018,05,29,06,43,10.60
2018,05,29,06,44,10.60
2018,05,29,06,45,10.60
2018,05,29,06,46,10.60
2018,05,29,06,47,10.60
2018,05,29,06,48,10.60
2018,05,29,06,49,10.60
2018,05,29,06,50,10.70
2018,05,29,06,51,10.70
2018,05,29,06,52,10.70
2018,05,29,06,53,10.70
2018,05,29,06,54,10.70
2018,05,29,06,55,10.70
2018,05,29,06,56,10.70
2018,05,29,06,57,10.80
2018,05,29,06,58,10.80
2018,05,29,06,59,10.80
2018,05,29,07,00,10.80
2018,05,29,07,01,10.80
2018,05,29,07,02,10.90
2018,05,29,07,03,11.00
2018,05,29,07,04,11.00
2018,05,29,07,05,11.10
2018,05,29,07,06,11.10
2018,05,29,07,07,11.20
2018,05,29,07,08,11.20
2018,05,29,07,09,11.20
2018,05,29,07,10,11.20
2018,05,29,07,11,11.20
2018,05,29,07,12,11.20
2018,05,29,07,13,11.20
2018,05,29,07,14,11.20
2018,05,29,07,15,11.20
2018,05,29,07,16,11.20
2018,05,29,07,17,11.20
2018,05,29,07,18,11.20
2018,05,29,07,19,11.20
2018,05,29,07,20,11.20
2018,05,29,07,21,11.20
2018,05,29,07,22,11.20
2018,05,29,07,23,11.20
2018,05,29,07,24,11.20
2018,05,29,07,25,11.20
2018,05,29,07,26,11.20
2018,05,29,07,27,11.20
2018,05,29,07,28,11.10
2018,05,29,07,29,11.10
2018,05,29,07,30,11.10
2018,05,29,07,31,11.10
2018,05,29,07,32,11.10
2018,05,29,07,33,11.10
2018,05,29,07,34,11.10
2018,05,29,07,35,11.10
2018,05,29,07,36,11.10
2018,05,29,07,37,11.10
2018,05,29,07,38,11.10
2018,05,29,07,39,11.10
2018,05,29,07,40,11.10
2018,05,29,07,41,11.10
2018,05,29,07,42,11.10
2018,05,29,07,43,11.10
2018,05,29,07,44,11.10
2018,05,29,07,45,11.10
2018,05,29,07,46,11.20
2018,05,29,07,47,11.20
2018,05,29,07,48,11.20
2018,05,29,07,49,11.20
2018,05,29,07,50,11.20
2018,05,29,07,51,11.20
2018,05,29,07,52,11.20
2018,05,29,07,53,11.20
2018,05,29,07,54,11.30
2018,05,29,07,55,11.30
2018,05,29,07,56,11.30
2018,05,29,07,57,11.30
2018,05,29,07,58,11.30
2018,05,29,07,59,11.30
2018,05,29,08,00,11.30
2018,05,29,08,01,11.30
2018,05,29,08,02,11.30
2018,05,29,08,03,11.40
2018,05,29,08,04,11.40
2018,05,29,08,05,11.40
2018,05,29,08,06,11.40
2018,05,29,08,07,11.40
2018,05,29,08,08,11.40
2018,05,29,08,09,11.40
2018,05,29,08,10,11.40
2018,05,29,08,11,11.50
2018,05,29,08,12,11.50
2018,05,29,08,13,11.50
2018,05,29,08,14,11.50
2018,05,29,08,15,11.50
2018,05,29,08,16,11.50
2018,05,29,08,17,11.40
2018,05,29,08,18,11.50
2018,05,29,08,19,11.50
2018,05,29,08,20,11.50
2018,05,29,08,21,11.60
2018,05,29,08,22,11.60
2018,05,29,08,23,11.60
2018,05,29,08,24,11.60
2018,05,29,08,25,11.60
2018,05,29,08,26,11.60
2018,05,29,08,27,11.60
2018,05,29,08,28,11.60
2018,05,29,08,29,11.60
2018,05,29,08,30,11.70
2018,05,29,08,31,11.70
2018,05,29,08,32,11.70
2018,05,29,08,33,11.80
2018,05,29,08,34,11.80
2018,05,29,08,35,11.80
2018,05,29,08,36,11.90
2018,05,29,08,37,11.90
2018,05,29,08,38,12.00
2018,05,29,08,39,12.00
2018,05,29,08,40,12.10
2018,05,29,08,41,12.10
2018,05,29,08,42,12.20
2018,05,29,08,43,12.20
2018,05,29,08,44,12.20
2018,05,29,08,45,12.20
2018,05,29,08,46,12.30
2018,05,29,08,47,12.30
2018,05,29,08,48,12.30
2018,05,29,08,49,12.40
2018,05,29,08,50,12.40
2018,05,29,08,51,12.50
2018,05,29,08,52,12.60
2018,05,29,08,53,12.60
2018,05,29,08,54,12.70
2018,05,29,08,55,12.70
2018,05,29,08,56,12.70
2018,05,29,08,57,12.70
2018,05,29,08,58,12.70
2018,05,29,08,59,12.80
2018,05,29,09,00,12.80
2018,05,29,09,01,12.90
2018,05,29,09,02,12.90
2018,05,29,09,03,13.00
2018,05,29,09,04,13.20
2018,05,29,09,05,13.20
2018,05,29,09,06,13.30
2018,05,29,09,07,13.30
2018,05,29,09,08,13.40
2018,05,29,09,09,13.40
2018,05,29,09,10,13.40
2018,05,29,09,11,13.50
2018,05,29,09,12,13.60
2018,05,29,09,13,13.70
2018,05,29,09,14,13.80
2018,05,29,09,15,13.80
2018,05,29,09,16,13.80
2018,05,29,09,17,13.80
2018,05,29,09,18,13.90
2018,05,29,09,19,13.90
2018,05,29,09,20,14.00
2018,05,29,09,21,14.00
2018,05,29,09,22,14.00
2018,05,29,09,23,14.00
2018,05,29,09,24,14.00
2018,05,29,09,25,14.00
2018,05,29,09,26,13.90
2018,05,29,09,27,14.00
2018,05,29,09,28,14.00
2018,05,29,09,29,13.90
2018,05,29,09,30,13.90
2018,05,29,09,31,14.00
2018,05,29,09,32,14.10
2018,05,29,09,33,14.20
2018,05,29,09,34,14.30
2018,05,29,09,35,14.30
2018,05,29,09,36,14.40
2018,05,29,09,37,14.40
2018,05,29,09,38,14.40
2018,05,29,09,39,14.40
2018,05,29,09,40,14.50
2018,05,29,09,41,14.60
2018,05,29,09,42,14.60
2018,05,29,09,43,14.60
2018,05,29,09,44,14.50
2018,05,29,09,45,14.40
2018,05,29,09,46,14.30
2018,05,29,09,47,14.20
2018,05,29,09,48,14.20
2018,05,29,09,49,14.20
2018,05,29,09,50,14.10
2018,05,29,09,51,14.10
2018,05,29,09,52,14.10
2018,05,29,09,53,14.10
2018,05,29,09,54,14.20
2018,05,29,09,55,14.30
2018,05,29,09,56,14.30
2018,05,29,09,57,14.20
2018,05,29,09,58,14.10
2018,05,29,09,59,14.00
2018,05,29,10,00,13.90
2018,05,29,10,01,13.80
2018,05,29,10,02,13.80
2018,05,29,10,03,13.80
2018,05,29,10,04,13.80
2018,05,29,10,05,13.70
2018,05,29,10,06,13.70
2018,05,29,10,07,13.70
2018,05,29,10,08,13.70
2018,05,29,10,09,13.80
2018,05,29,10,10,13.80
2018,05,29,10,11,13.80
2018,05,29,10,12,13.90
2018,05,29,10,13,14.00
2018,05,29,10,14,14.20
2018,05,29,10,15,14.30
2018,05,29,10,16,14.30
2018,05,29,10,17,14.30
2018,05,29,10,18,14.30
2018,05,29,10,19,14.30
2018,05,29,10,20,14.20
2018,05,29,10,21,14.20
2018,05,29,10,22,14.10
2018,05,29,10,23,14.10
2018,05,29,10,24,14.10
2018,05,29,10,25,14.10
2018,05,29,10,26,14.10
2018,05,29,10,27,14.10
2018,05,29,10,28,14.00
2018,05,29,10,29,13.90
2018,05,29,10,30,13.90
2018,05,29,10,31,13.90
2018,05,29,10,32,14.00
2018,05,29,10,33,14.10
2018,05,29,10,34,14.10
2018,05,29,10,35,14.00
2018,05,29,10,36,14.00
2018,05,29,10,37,14.00
2018,05,29,10,38,14.10
2018,05,29,10,39,14.10
2018,05,29,10,40,14.10
2018,05,29,10,41,14.10
2018,05,29,10,42,14.10
2018,05,29,10,43,14.10
2018,05,29,10,44,14.10
2018,05,29,10,45,14.00
2018,05,29,10,46,14.00
2018,05,29,10,47,13.90
2018,05,29,10,48,13.90
2018,05,29,10,49,13.90
2018,05,29,10,50,13.90
2018,05,29,10,51,13.90
2018,05,29,10,52,14.00
2018,05,29,10,53,14.10
2018,05,29,10,54,14.20
2018,05,29,10,55,14.40
2018,05,29,10,56,14.50
2018,05,29,10,57,14.60
2018,05,29,10,58,14.50
2018,05,29,10,59,14.50
2018,05,29,11,00,14.60
2018,05,29,11,01,14.60
2018,05,29,11,02,14.60
2018,05,29,11,03,14.70
2018,05,29,11,04,14.80
2018,05,29,11,05,14.80
2018,05,29,11,06,14.80
2018,05,29,11,07,14.90
2018,05,29,11,08,14.90
2018,05,29,11,09,15.00
2018,05,29,11,10,15.00
2018,05,29,11,11,15.20
2018,05,29,11,12,15.20
2018,05,29,11,13,15.20
2018,05,29,11,14,15.20
2018,05,29,11,15,15.20
2018,05,29,11,16,15.20
2018,05,29,11,17,15.20
2018,05,29,11,18,15.20
2018,05,29,11,19,15.20
2018,05,29,11,20,15.20
2018,05,29,11,21,15.20
2018,05,29,11,22,15.20
2018,05,29,11,23,15.20
2018,05,29,11,24,15.20
2018,05,29,11,25,15.30
2018,05,29,11,26,15.30
2018,05,29,11,27,15.30
2018,05,29,11,28,15.20
2018,05,29,11,29,15.20
2018,05,29,11,30,15.10
2018,05,29,11,31,15.00
2018,05,29,11,32,14.90
2018,05,29,11,33,14.70
2018,05,29,11,34,14.60
2018,05,29,11,35,14.60
2018,05,29,11,36,14.60
2018,05,29,11,37,14.50
2018,05,29,11,38,14.40
2018,05,29,11,39,14.40
2018,05,29,11,40,14.50
2018,05,29,11,41,14.70
2018,05,29,11,42,14.70
2018,05,29,11,43,14.70
2018,05,29,11,44,14.70
2018,05,29,11,45,14.60
2018,05,29,11,46,14.50
2018,05,29,11,47,14.40
2018,05,29,11,48,14.30
2018,05,29,11,49,14.20
2018,05,29,11,50,14.20
2018,05,29,11,51,14.20
2018,05,29,11,52,14.20
2018,05,29,11,53,14.20
2018,05,29,11,54,14.20
2018,05,29,11,55,14.10
2018,05,29,11,56,14.10
2018,05,29,11,57,14.10
2018,05,29,11,58,14.10
2018,05,29,11,59,14.20
2018,05,29,12,00,14.20
2018,05,29,12,01,14.20
2018,05,29,12,02,14.20
2018,05,29,12,03,14.10
2018,05,29,12,04,14.00
2018,05,29,12,05,14.00
2018,05,29,12,06,14.10
2018,05,29,12,07,14.20
2018,05,29,12,08,14.30
2018,05,29,12,09,14.30
2018,05,29,12,10,14.30
2018,05,29,12,11,14.40
2018,05,29,12,12,14.50
2018,05,29,12,13,14.60
2018,05,29,12,14,14.50
2018,05,29,12,15,14.50
2018,05,29,12,16,14.50
2018,05,29,12,17,14.60
2018,05,29,12,18,14.60
2018,05,29,12,19,14.50
2018,05,29,12,20,14.40
2018,05,29,12,21,14.30
2018,05,29,12,22,14.30
2018,05,29,12,23,14.20
2018,05,29,12,24,14.20
2018,05,29,12,25,14.20
2018,05,29,12,26,14.20
2018,05,29,12,27,14.20
2018,05,29,12,28,14.30
2018,05,29,12,29,14.30
2018,05,29,12,30,14.30
2018,05,29,12,31,14.30
2018,05,29,12,32,14.30
2018,05,29,12,33,14.40
2018,05,29,12,34,14.40
2018,05,29,12,35,14.40
2018,05,29,12,36,14.40
2018,05,29,12,37,14.30
2018,05,29,12,38,14.40
2018,05,29,12,39,14.50
2018,05,29,12,40,14.50
2018,05,29,12,41,14.50
2018,05,29,12,42,14.60
2018,05,29,12,43,14.50
2018,05,29,12,44,14.40
2018,05,29,12,45,14.30
2018,05,29,12,46,14.30
2018,05,29,12,47,14.30
2018,05,29,12,48,14.30
2018,05,29,12,49,14.40
2018,05,29,12,50,14.50
2018,05,29,12,51,14.50
2018,05,29,12,52,14.60
2018,05,29,12,53,14.50
2018,05,29,12,54,14.50
2018,05,29,12,55,14.40
2018,05,29,12,56,14.50
2018,05,29,12,57,14.60
2018,05,29,12,58,14.50
2018,05,29,12,59,14.60
2018,05,29,13,00,14.50
2018,05,29,13,01,14.50
2018,05,29,13,02,14.60
2018,05,29,13,03,14.60
2018,05,29,13,04,14.60
2018,05,29,13,05,14.50
2018,05,29,13,06,14.40
2018,05,29,13,07,14.30
2018,05,29,13,08,14.30
2018,05,29,13,09,14.30
2018,05,29,13,10,14.40
2018,05,29,13,11,14.40
2018,05,29,13,12,14.40
2018,05,29,13,13,14.50
2018,05,29,13,14,14.60
2018,05,29,13,15,14.60
2018,05,29,13,16,14.60
2018,05,29,13,17,14.60
2018,05,29,13,18,14.50
2018,05,29,13,19,14.40
2018,05,29,13,20,14.40
2018,05,29,13,21,14.30
2018,05,29,13,22,14.20
2018,05,29,13,23,14.20
2018,05,29,13,24,14.20
2018,05,29,13,25,14.20
2018,05,29,13,26,14.20
2018,05,29,13,27,14.20
2018,05,29,13,28,14.10
2018,05,29,13,29,14.20
2018,05,29,13,30,14.20
2018,05,29,13,31,14.20
2018,05,29,13,32,14.20
2018,05,29,13,33,14.30
2018,05,29,13,34,14.30
2018,05,29,13,35,14.30
2018,05,29,13,36,14.30
2018,05,29,13,37,14.20
2018,05,29,13,38,14.10
2018,05,29,13,39,14.10
2018,05,29,13,40,14.10
2018,05,29,13,41,14.10
2018,05,29,13,42,14.10
2018,05,29,13,43,14.20
2018,05,29,13,44,14.20
2018,05,29,13,45,14.20
2018,05,29,13,46,14.10
2018,05,29,13,47,14.10
2018,05,29,13,48,14.10
2018,05,29,13,49,14.10
2018,05,29,13,50,14.10
2018,05,29,13,51,14.10
2018,05,29,13,52,14.20
2018,05,29,13,53,14.30
2018,05,29,13,54,14.30
2018,05,29,13,55,14.30
2018,05,29,13,56,14.30
2018,05,29,13,57,14.30
2018,05,29,13,58,14.30
2018,05,29,13,59,14.30
2018,05,29,14,00,14.30
2018,05,29,14,01,14.20
2018,05,29,14,02,14.20
2018,05,29,14,03,14.20
2018,05,29,14,04,14.20
2018,05,29,14,05,14.20
2018,05,29,14,06,14.20
2018,05,29,14,07,14.20
2018,05,29,14,08,14.20
2018,05,29,14,09,14.30
2018,05,29,14,10,14.30
2018,05,29,14,11,14.30
2018,05,29,14,12,14.30
2018,05,29,14,13,14.30
2018,05,29,14,14,14.20
2018,05,29,14,15,14.20
2018,05,29,14,16,14.10
2018,05,29,14,17,14.10
2018,05,29,14,18,14.10
2018,05,29,14,19,14.10
2018,05,29,14,20,14.10
2018,05,29,14,21,14.10
2018,05,29,14,22,14.10
2018,05,29,14,23,14.10
2018,05,29,14,24,14.10
2018,05,29,14,25,14.20
2018,05,29,14,26,14.10
2018,05,29,14,27,14.10
2018,05,29,14,28,14.20
2018,05,29,14,29,14.20
2018,05,29,14,30,14.20
2018,05,29,14,31,14.30
2018,05,29,14,32,14.30
2018,05,29,14,33,14.30
2018,05,29,14,34,14.30
2018,05,29,14,35,14.30
2018,05,29,14,36,14.40
2018,05,29,14,37,14.40
2018,05,29,14,38,14.50
2018,05,29,14,39,14.40
2018,05,29,14,40,14.40
2018,05,29,14,41,14.30
2018,05,29,14,42,14.30
2018,05,29,14,43,14.30
2018,05,29,14,44,14.40
2018,05,29,14,45,14.50
2018,05,29,14,46,14.50
2018,05,29,14,47,14.60
2018,05,29,14,48,14.60
2018,05,29,14,49,14.70
2018,05,29,14,50,14.70
2018,05,29,14,51,14.70
2018,05,29,14,52,14.70
2018,05,29,14,53,14.70
2018,05,29,14,54,14.70
2018,05,29,14,55,14.70
2018,05,29,14,56,14.70
2018,05,29,14,57,14.70
2018,05,29,14,58,14.70
2018,05,29,14,59,14.60
2018,05,29,15,00,14.60
2018,05,29,15,01,14.60
2018,05,29,15,02,14.50
2018,05,29,15,03,14.50
2018,05,29,15,04,14.50
2018,05,29,15,05,14.60
2018,05,29,15,06,14.70
2018,05,29,15,07,14.70
2018,05,29,15,08,14.70
2018,05,29,15,09,14.70
2018,05,29,15,10,14.80
2018,05,29,15,11,14.90
2018,05,29,15,12,15.00
2018,05,29,15,13,15.00
2018,05,29,15,14,15.00
2018,05,29,15,15,15.00
2018,05,29,15,16,15.00
2018,05,29,15,17,15.10
2018,05,29,15,18,15.30
2018,05,29,15,19,15.30
2018,05,29,15,20,15.40
2018,05,29,15,21,15.40
2018,05,29,15,22,15.40
2018,05,29,15,23,15.40
2018,05,29,15,24,15.40
2018,05,29,15,25,15.50
2018,05,29,15,26,15.50
2018,05,29,15,27,15.60
2018,05,29,15,28,15.60
2018,05,29,15,29,15.50
2018,05,29,15,30,15.50
2018,05,29,15,31,15.40
2018,05,29,15,32,15.40
2018,05,29,15,33,15.30
2018,05,29,15,34,15.30
2018,05,29,15,35,15.40
2018,05,29,15,36,15.40
2018,05,29,15,37,15.30
2018,05,29,15,38,15.30
2018,05,29,15,39,15.20
2018,05,29,15,40,15.20
2018,05,29,15,41,15.10
2018,05,29,15,42,15.10
2018,05,29,15,43,15.10
2018,05,29,15,44,15.10
2018,05,29,15,45,15.20
2018,05,29,15,46,15.20
2018,05,29,15,47,15.30
2018,05,29,15,48,15.30
2018,05,29,15,49,15.30
2018,05,29,15,50,15.30
2018,05,29,15,51,15.30
2018,05,29,15,52,15.20
2018,05,29,15,53,15.10
2018,05,29,15,54,15.00
2018,05,29,15,55,15.00
2018,05,29,15,56,15.10
2018,05,29,15,57,15.20
2018,05,29,15,58,15.30
2018,05,29,15,59,15.40
2018,05,29,16,00,15.40
2018,05,29,16,01,15.40
2018,05,29,16,02,15.50
2018,05,29,16,03,15.50
2018,05,29,16,04,15.50
2018,05,29,16,05,15.50
2018,05,29,16,06,15.60
2018,05,29,16,07,15.50
2018,05,29,16,08,15.50
2018,05,29,16,09,15.50
2018,05,29,16,10,15.50
2018,05,29,16,11,15.60
2018,05,29,16,12,15.70
2018,05,29,16,13,15.80
2018,05,29,16,14,15.80
2018,05,29,16,15,15.70
2018,05,29,16,16,15.70
2018,05,29,16,17,15.80
2018,05,29,16,18,15.80
2018,05,29,16,19,15.80
2018,05,29,16,20,15.80
2018,05,29,16,21,15.80
2018,05,29,16,22,15.80
2018,05,29,16,23,15.90
2018,05,29,16,24,15.90
2018,05,29,16,25,15.90
2018,05,29,16,26,15.80
2018,05,29,16,27,15.80
2018,05,29,16,28,15.70
2018,05,29,16,29,15.80
2018,05,29,16,30,15.90
2018,05,29,16,31,15.90
2018,05,29,16,32,15.90
2018,05,29,16,33,15.90
2018,05,29,16,34,15.80
2018,05,29,16,35,15.70
2018,05,29,16,36,15.70
2018,05,29,16,37,15.60
2018,05,29,16,38,15.50
2018,05,29,16,39,15.40
2018,05,29,16,40,15.40
2018,05,29,16,41,15.30
2018,05,29,16,42,15.20
2018,05,29,16,43,15.20
2018,05,29,16,44,15.20
2018,05,29,16,45,15.20
2018,05,29,16,46,15.20
2018,05,29,16,47,15.10
2018,05,29,16,48,15.10
2018,05,29,16,49,15.10
2018,05,29,16,50,15.10
2018,05,29,16,51,15.10
2018,05,29,16,52,15.10
2018,05,29,16,53,15.20
2018,05,29,16,54,15.20
2018,05,29,16,55,15.20
2018,05,29,16,56,15.20
2018,05,29,16,57,15.20
2018,05,29,16,58,15.10
2018,05,29,16,59,15.10
2018,05,29,17,00,15.20
2018,05,29,17,01,15.20
2018,05,29,17,02,15.20
2018,05,29,17,03,15.20
2018,05,29,17,04,15.20
2018,05,29,17,05,15.20
2018,05,29,17,06,15.30
2018,05,29,17,07,15.30
2018,05,29,17,08,15.30
2018,05,29,17,09,15.30
2018,05,29,17,10,15.40
2018,05,29,17,11,15.40
2018,05,29,17,12,15.50
2018,05,29,17,13,15.60
2018,05,29,17,14,15.60
2018,05,29,17,15,15.70
2018,05,29,17,16,15.60
2018,05,29,17,17,15.60
2018,05,29,17,18,15.60
2018,05,29,17,19,15.60
2018,05,29,17,20,15.50
2018,05,29,17,21,15.50
2018,05,29,17,22,15.40
2018,05,29,17,23,15.50